Wind_Speed
8 8 8 8 8 6 2 2 1 1 1 1 2 2 1 2 1 3 6 5 2 2 2 2 4 7 3 1 3 2 1 0 1 1 2 2 3 8 16 8 17 28 27 23 22 26 25 26 24 22 22 19 21 20 18 18 19 20 20 20 19 19 19 18 17 16 15 15 15 16 16 15 16 17 16 16 16 15 15 14 14 14 14 14 13 12 11 10 9 8 7 6 5 5 5 6 6
7 6 7 6 6 4 0 1 1 0 2 3 2 0 1 2 3 4 6 6 3 2 2 1 4 3 3 3 3 3 2 2 2 1 3 4 7 11 12 7 19 28 26 22 23 24 23 25 24 24 22 20 21 20 18 18 19 21 20 20 19 19 19 17 17 16 15 14 14 15 15 15 15 16 16 15 15 15 13 12 13 13 13 12 12 11 10 9 8 8 8 6 4 3 3 3 4
6 5 5 3 3 4 1 1 1 0 3 4 4 2 1 3 3 4 4 3 2 2 3 3 4 2 1 1 2 1 1 1 1 2 3 6 8 10 9 10 21 26 23 21 21 22 23 24 25 25 23 21 21 20 18 18 20 21 20 20 20 19 18 17 16 15 14 13 13 13 13 13 14 15 16 15 15 14 13 11 11 11 11 11 11 10 9 9 8 8 8 7 5 4 3 2 2
5 4 4 2 1 1 2 0 1 2 4 3 4 2 3 3 3 3 3 3 2 2 2 1 3 1 4 4 1 1 1 1 2 2 4 5 9 13 13 14 20 21 20 19 19 21 23 24 24 25 23 22 21 20 19 19 20 20 20 20 20 18 17 16 15 14 14 13 12 11 11 12 13 14 16 15 14 14 13 11 10 10 10 9 10 10 9 9 8 8 8 7 6 4 3 3 3
2 2 4 1 1 0 2 0 1 3 5 2 4 1 4 4 3 3 4 4 3 3 1 1 1 1 2 2 1 1 1 1 1 2 5 7 13 16 17 18 19 19 19 19 19 20 22 24 24 24 24 22 21 20 19 19 20 20 20 20 19 18 17 16 14 14 13 12 10 10 10 11 12 13 14 14 14 13 12 11 10 9 8 8 8 9 9 9 9 8 8 8 7 6 5 5 5
1 3 5 4 1 1 2 2 2 4 5 3 6 5 3 4 3 3 4 6 4 4 0 0 2 1 2 1 2 1 1 1 2 3 6 12 17 17 19 21 19 20 19 18 19 18 21 24 23 23 23 21 21 20 19 20 20 20 20 19 19 17 17 15 14 13 11 10 10 9 9 10 11 12 13 13 13 12 11 11 10 9 8 7 7 8 8 8 9 9 9 9 8 7 8 8 7
3 3 3 3 2 1 2 4 5 6 5 4 6 9 4 3 3 2 4 5 4 2 1 0 1 3 3 3 2 4 2 2 0 3 10 17 20 19 21 22 20 21 19 18 18 19 22 24 23 23 23 21 20 19 19 20 20 20 20 19 18 17 16 15 14 12 11 10 9 9 9 9 10 11 12 11 11 11 11 10 10 9 7 6 6 7 7 8 9 9 9 10 9 9 9 8 7
4 2 1 1 1 1 2 4 5 4 2 3 6 9 6 2 3 3 2 2 3 3 2 1 1 3 2 2 1 3 4 2 1 6 15 20 21 21 22 22 21 21 19 18 18 20 23 23 23 23 23 20 19 19 19 19 19 19 19 18 18 17 16 15 14 12 11 9 9 9 9 8 8 9 10 10 10 11 10 10 9 8 7 5 6 6 6 7 8 8 9 9 10 9 8 7 7
3 1 0 2 2 1 2 3 3 3 3 4 7 8 5 1 3 4 3 2 2 2 3 2 1 3 2 2 1 2 4 3 4 11 17 19 20 22 23 22 21 22 20 18 19 21 22 23 23 23 21 20 19 18 19 19 19 19 18 17 17 17 16 14 13 11 10 10 10 9 9 8 8 8 8 9 10 10 10 9 9 8 7 5 6 6 6 6 7 8 8 8 9 9 8 7 6
2 1 2 1 2 4 4 4 3 3 4 6 8 9 4 3 3 4 4 5 2 3 2 2 2 5 4 2 1 2 0 3 10 14 16 18 19 21 22 21 20 21 21 20 21 21 21 22 23 23 21 20 19 18 19 19 19 18 17 17 16 15 14 13 11 10 9 9 10 9 9 8 7 7 7 8 8 9 9 9 8 7 6 6 6 5 5 5 6 7 7 7 7 7 7 6 5
1 1 1 2 4 5 5 6 6 5 3 3 6 10 6 3 2 3 6 5 2 4 3 2 3 5 3 3 1 1 3 7 12 15 16 17 18 19 22 19 18 19 21 22 22 20 20 23 23 22 21 19 19 19 20 19 19 18 17 16 15 14 13 11 10 9 9 9 10 9 8 8 7 7 7 7 7 8 8 8 8 7 5 5 5 4 5 5 5 5 6 6 6 6 5 5 4
3 3 2 4 5 6 6 7 9 7 4 2 5 8 4 5 4 6 7 5 4 6 5 4 2 3 4 3 0 3 7 8 11 14 16 17 17 18 20 17 17 18 20 22 22 20 20 22 22 21 20 20 19 19 20 19 18 18 16 15 14 13 11 10 10 10 10 10 10 9 8 8 7 7 7 6 6 6 7 7 6 5 4 5 5 5 5 5 4 4 4 4 5 4 4 4 4
3 4 4 5 3 5 6 6 7 7 6 5 6 4 3 6 7 8 5 3 5 6 6 9 5 3 5 1 1 4 7 9 11 15 16 17 17 17 17 16 17 18 20 21 20 20 20 22 21 20 19 19 19 19 19 18 17 16 15 15 13 12 11 11 11 12 12 12 12 11 10 9 8 8 7 6 6 6 6 6 5 5 4 5 5 5 5 4 3 2 2 3 4 4 4 4 4
2 2 4 4 1 4 6 4 4 7 6 5 5 4 4 4 4 4 3 3 7 6 3 5 6 4 5 2 2 5 8 11 14 15 17 17 17 17 16 16 17 19 19 19 19 19 21 21 20 19 19 19 18 18 18 18 17 15 15 14 13 12 11 12 12 13 14 14 14 14 13 12 12 11 11 10 9 9 8 7 6 5 5 5 5 4 4 3 2 2 2 3 3 3 3 3 3
2 2 2 2 2 3 6 5 5 8 6 4 5 5 5 3 2 3 4 6 5 2 1 1 6 4 4 6 5 7 13 15 16 16 18 18 17 17 16 16 17 18 18 18 19 19 20 20 19 19 19 19 19 18 18 17 16 14 14 14 13 12 12 13 14 15 15 16 16 15 14 14 13 14 14 14 14 14 14 12 11 10 8 7 6 5 5 4 4 3 3 3 3 3 3 3 3
2 2 1 3 4 5 6 5 5 7 5 3 3 5 5 3 2 3 3 4 2 1 1 1 3 3 1 4 2 11 19 18 17 17 19 19 18 17 16 16 17 17 16 17 18 18 20 20 19 19 19 20 19 19 18 17 16 15 15 14 12 13 14 14 15 15 16 16 15 14 14 14 13 14 14 14 16 16 16 16 15 14 13 11 10 9 8 7 6 6 5 4 4 3 3 3 3
2 2 4 4 5 7 7 7 6 5 6 7 3 5 5 4 2 2 0 1 1 1 2 2 3 5 4 2 6 19 22 20 20 20 21 20 19 18 17 17 17 17 16 17 18 18 20 20 20 19 19 21 18 18 18 16 16 15 14 14 13 14 14 15 15 15 15 14 14 15 14 13 13 13 12 12 14 15 15 15 15 14 13 12 11 10 9 7 6 5 4 4 4 3 3 3 3
4 4 6 6 6 7 9 11 8 5 8 8 1 5 7 5 3 3 2 1 2 3 3 2 5 7 5 6 14 23 23 22 23 24 23 21 20 19 18 19 19 19 17 18 18 19 20 20 20 19 19 20 18 18 17 16 16 15 13 13 14 14 14 15 14 12 12 13 14 14 12 12 12 11 11 10 10 11 13 13 13 12 11 10 9 8 7 6 5 4 3 3 3 4 4 5 5
6 3 6 8 6 6 7 10 8 4 6 3 3 2 6 5 3 3 3 2 4 4 2 1 4 7 7 12 17 21 23 23 24 24 24 22 21 21 20 20 20 20 20 19 19 19 20 20 20 19 19 20 18 17 16 16 16 15 13 13 13 12 13 14 12 11 11 12 12 11 10 11 11 10 10 10 9 10 11 12 11 10 9 8 7 6 6 5 4 4 3 3 4 5 6 6 7
5 3 7 7 6 7 5 5 7 3 2 3 3 0 2 3 2 1 2 2 4 5 3 3 3 6 9 12 16 19 22 23 23 23 22 23 22 20 20 21 21 21 21 20 19 20 20 19 20 20 19 20 19 16 16 16 15 14 12 12 11 10 12 13 12 11 11 13 12 10 10 11 11 10 10 10 9 8 9 10 10 8 7 7 5 5 4 4 4 4 4 4 5 6 6 6 7
4 5 7 4 6 8 5 4 7 3 1 2 3 0 1 2 2 2 2 3 4 4 5 7 8 12 14 14 16 19 21 21 23 23 22 23 21 17 18 20 19 20 21 20 20 21 20 20 19 19 20 20 19 17 16 16 15 13 12 11 10 9 12 13 12 11 11 13 12 10 11 11 10 10 10 10 9 8 8 8 8 7 6 5 4 4 4 4 4 5 5 5 5 6 6 6 7
4 6 4 4 6 7 5 5 5 3 3 2 2 1 1 2 2 3 3 4 2 0 3 6 11 16 17 18 19 19 19 20 22 22 22 23 21 18 18 18 18 19 20 20 22 23 22 20 19 20 20 20 19 18 17 17 16 14 12 12 10 10 13 13 11 10 11 11 11 10 10 9 9 9 9 10 9 9 8 7 6 5 5 5 4 4 4 5 5 6 6 6 6 6 6 7 8
5 5 3 4 6 7 4 5 5 4 5 4 2 2 1 1 2 2 3 6 2 1 1 4 12 17 19 20 19 19 19 19 20 22 23 24 23 21 20 19 19 20 20 21 22 22 21 20 20 20 21 21 19 18 18 16 16 14 13 13 12 11 12 12 10 10 10 10 10 10 9 8 8 9 9 9 8 8 7 6 5 5 5 4 4 4 5 6 7 6 6 6 7 7 7 8 8
8 5 4 6 7 8 4 3 3 4 6 4 1 1 2 2 2 1 3 6 3 2 3 6 13 16 18 19 18 19 19 19 20 22 23 22 21 20 19 18 18 19 19 20 21 21 21 20 21 21 21 22 20 19 17 16 16 14 14 13 12 11 11 10 9 10 11 10 9 9 8 8 9 9 9 8 8 7 6 5 5 5 5 4 4 5 5 6 6 6 6 7 7 8 8 9 9
11 7 4 4 6 8 4 2 1 2 3 1 1 3 4 4 1 2 5 5 3 1 5 10 13 15 17 17 17 17 16 18 19 21 21 18 16 17 17 17 17 18 18 20 21 21 21 20 21 22 22 22 21 19 17 16 16 15 14 13 11 11 11 11 11 12 11 9 8 8 7 8 9 8 8 7 7 6 5 5 5 4 5 4 5 6 6 6 6 6 6 6 7 8 9 10 11
9 9 5 5 5 5 5 5 5 3 2 2 4 5 5 4 1 3 6 4 2 4 8 12 14 15 16 15 16 16 15 17 19 21 19 15 14 16 17 17 17 18 18 20 20 20 21 20 21 22 22 21 21 20 17 17 17 15 14 12 11 11 11 13 13 12 10 8 7 7 7 8 8 7 7 6 6 6 5 4 4 4 5 5 6 6 6 6 5 6 7 7 7 8 9 12 12
6 11 8 7 6 4 4 5 4 3 3 5 6 5 4 2 3 5 2 2 5 8 9 11 13 14 15 14 15 16 15 18 19 19 18 15 15 18 18 17 17 17 18 19 19 19 21 20 21 22 21 20 21 20 18 17 17 16 13 12 11 10 12 15 14 12 10 7 6 6 7 7 7 7 6 5 5 5 4 3 3 4 4 5 6 6 6 6 6 7 8 9 9 10 10 12 11
6 11 9 10 10 5 5 4 4 2 3 6 6 5 2 2 5 6 3 6 8 10 10 11 12 11 13 14 14 14 14 18 20 19 19 19 18 18 18 18 18 17 17 19 18 18 20 20 20 21 20 19 20 19 18 17 17 15 13 11 10 11 14 16 14 11 9 7 7 6 5 6 6 5 5 4 4 4 3 2 3 3 4 5 6 6 6 7 7 8 10 10 11 11 10 10 10
5 8 8 10 10 10 10 8 6 5 4 5 6 6 6 7 6 3 6 9 9 9 10 11 11 10 12 13 13 12 13 17 20 20 21 18 14 16 16 16 18 17 17 19 18 18 19 19 19 20 20 19 19 20 19 18 16 13 11 11 11 13 15 15 13 11 9 7 7 5 4 5 5 4 3 3 3 3 2 2 2 2 4 5 6 6 7 7 7 7 9 9 10 10 9 10 10
6 6 6 7 7 9 11 9 8 8 5 5 6 6 8 10 7 5 8 10 10 9 9 10 10 10 11 12 11 12 13 17 20 22 21 16 12 14 14 14 18 16 15 17 18 17 17 17 18 18 19 20 20 20 19 18 15 12 11 13 15 15 14 13 12 11 9 7 6 6 5 5 5 3 2 2 2 2 2 3 2 1 3 5 6 6 7 7 6 6 7 7 8 9 8 9 10
6 6 4 6 6 4 5 8 11 11 5 6 9 8 6 7 5 7 9 11 12 11 10 10 10 10 10 11 12 12 13 16 19 20 20 16 12 13 13 14 17 16 16 18 18 17 16 17 17 17 19 21 21 20 18 16 15 13 13 14 14 13 11 11 12 11 9 7 6 6 5 5 4 3 3 2 1 2 3 3 2 0 3 6 6 6 7 7 6 7 7 7 7 8 8 9 8
7 6 6 7 7 3 3 6 13 14 5 7 12 7 6 6 5 8 10 12 13 11 11 11 11 12 11 11 12 12 12 15 18 19 20 18 14 13 14 15 18 20 21 20 17 17 17 17 19 19 20 22 21 20 18 15 15 15 14 12 12 11 11 12 12 11 9 7 7 6 6 4 3 4 4 2 1 2 3 4 3 0 4 5 5 6 7 7 7 7 8 9 8 8 9 9 8
6 7 6 7 9 5 3 4 10 15 8 8 13 7 5 4 3 9 12 13 13 11 11 12 12 12 11 11 11 11 11 13 16 18 20 19 17 16 15 16 20 22 24 22 18 19 19 18 20 20 21 23 21 19 18 15 14 15 15 14 13 12 12 12 11 11 9 8 7 6 6 5 4 5 4 2 1 2 4 4 2 1 3 3 4 6 7 6 6 6 7 8 7 7 8 10 10
6 5 3 4 9 7 5 4 5 12 11 11 13 11 11 2 1 8 13 15 15 12 12 12 12 11 10 10 10 12 12 12 14 17 20 19 18 17 15 17 20 22 24 23 20 19 19 19 19 20 21 22 21 20 18 15 14 15 15 15 13 12 11 11 10 10 9 9 8 7 6 5 5 5 4 3 2 3 4 3 2 2 3 4 5 6 5 6 6 6 5 6 6 7 8 10 11
8 8 5 4 8 11 10 7 5 10 12 13 13 13 17 6 3 8 12 14 15 13 13 12 12 12 11 10 11 12 12 14 13 14 17 17 17 17 16 16 19 22 22 21 18 17 18 17 17 19 21 22 21 20 18 15 14 14 13 14 13 12 11 10 10 9 10 9 8 7 6 6 6 6 5 3 3 5 4 2 2 3 3 4 4 3 4 4 5 5 4 4 6 7 7 9 11
11 10 8 7 9 9 8 5 5 10 11 12 13 13 17 9 6 8 11 13 14 12 11 10 10 11 10 11 11 12 13 14 12 11 13 15 16 17 16 15 17 20 19 16 16 17 18 18 17 17 19 21 20 20 18 14 13 12 11 12 12 11 10 9 9 10 10 10 8 8 7 6 7 8 5 4 4 5 4 3 2 3 3 3 2 2 3 4 4 4 4 5 6 6 7 10 11
12 10 9 8 9 6 4 4 3 8 9 10 12 12 15 10 8 10 10 12 13 13 12 10 10 11 11 13 13 13 14 12 9 8 10 13 15 16 17 16 16 17 15 15 17 18 19 19 19 19 19 20 19 19 17 14 12 10 10 10 10 11 10 10 11 11 10 10 9 8 8 8 9 9 6 5 5 4 3 2 2 3 2 2 2 3 3 3 4 3 4 6 7 7 7 11 12
11 11 9 7 8 5 5 6 4 6 7 7 9 12 16 10 8 9 9 12 14 14 15 13 14 14 12 13 15 14 12 9 7 7 10 13 14 15 17 17 17 16 16 17 18 19 19 20 20 19 19 19 18 18 17 14 13 12 10 9 10 12 11 11 12 12 11 10 10 10 10 11 10 9 7 5 4 3 2 2 2 1 1 1 2 3 2 3 4 4 5 5 6 7 8 12 14
7 8 9 6 5 3 4 4 2 6 6 4 7 11 14 7 5 6 11 13 14 15 16 15 15 15 14 14 14 13 12 11 11 10 10 13 15 15 16 18 18 17 18 18 18 19 19 20 19 18 19 18 17 18 18 16 16 15 13 12 12 13 13 12 12 12 12 11 12 12 12 12 10 8 6 4 3 2 2 1 1 1 1 1 2 2 2 3 4 5 6 5 4 5 7 11 14
4 6 9 6 4 4 5 4 3 5 2 1 7 9 8 3 4 4 9 12 11 13 15 13 13 14 14 14 12 11 13 13 13 13 11 12 15 15 16 18 18 17 18 18 18 18 19 18 18 19 20 18 19 21 22 21 19 17 15 14 14 14 14 14 12 11 12 13 14 14 14 12 10 8 6 4 2 1 1 1 1 1 1 2 2 1 2 3 4 5 6 6 5 4 6 9 11
2 3 6 6 6 4 2 3 3 3 0 2 6 5 5 3 5 5 6 9 11 12 14 14 14 14 13 12 12 13 14 14 13 13 11 11 14 15 15 17 18 16 17 19 19 19 20 17 16 20 20 18 20 23 26 26 23 19 16 15 15 15 13 12 12 10 12 15 16 16 14 12 9 7 5 3 2 1 2 1 1 1 1 1 1 1 3 4 4 5 6 7 8 6 5 7 9
3 3 4 6 9 6 2 3 4 5 5 3 3 6 4 3 6 6 5 8 12 12 13 16 16 15 14 13 14 14 14 14 13 12 11 11 13 14 15 16 18 17 16 19 21 21 22 20 18 20 18 18 20 23 28 29 25 23 21 19 18 15 13 12 12 12 15 18 17 16 14 11 8 6 4 3 3 2 2 2 1 1 1 2 2 3 4 4 5 6 7 8 9 9 6 5 7
5 4 5 4 6 7 4 3 5 6 5 2 1 7 4 2 5 5 6 10 13 12 14 16 15 13 14 14 14 13 13 13 13 12 11 11 13 15 15 16 18 18 16 18 21 21 22 23 24 23 20 18 20 24 28 27 25 25 24 23 21 17 15 14 13 16 18 17 15 14 13 10 7 6 5 4 3 3 2 2 1 2 2 3 3 3 4 5 5 6 7 8 8 9 8 7 6
4 4 7 7 5 5 5 3 3 1 1 2 1 4 4 4 3 2 5 8 9 11 14 15 14 14 16 15 14 13 13 12 11 11 11 11 14 15 16 17 16 17 16 17 20 20 22 27 29 30 27 20 20 26 28 25 24 26 26 24 22 17 15 17 18 19 17 13 13 14 13 10 8 6 5 5 4 3 2 2 2 3 3 4 3 4 5 6 6 6 7 8 8 10 11 10 8
3 4 8 7 5 4 3 2 2 2 1 5 4 4 5 6 2 3 4 7 8 12 16 16 14 15 16 15 14 14 13 12 11 11 11 11 14 16 17 18 17 18 18 18 20 20 23 27 29 34 32 21 21 28 28 24 24 26 26 25 22 17 18 21 20 17 13 11 13 14 12 10 9 8 6 5 4 4 3 3 4 4 4 4 4 5 5 5 5 6 7 8 9 11 12 11 11
4 7 7 5 3 3 1 1 1 1 3 6 7 7 7 5 3 4 4 6 10 11 12 13 14 14 15 14 15 14 12 12 11 11 11 11 15 17 17 19 19 19 20 19 21 22 23 23 27 35 32 20 21 28 27 25 26 27 27 26 24 22 22 23 19 14 15 15 14 13 13 11 10 9 7 6 5 4 3 4 5 5 4 4 5 5 5 4 5 6 8 9 10 11 12 12 12
8 9 7 5 3 1 1 1 0 2 5 5 7 6 5 5 3 5 6 6 8 8 8 10 12 13 14 14 14 14 12 11 11 10 11 12 15 17 18 20 20 19 19 19 21 22 23 21 22 29 28 22 23 27 28 28 30 30 28 26 25 25 25 25 21 17 19 20 15 12 13 13 11 9 7 6 5 4 5 6 7 6 4 4 5 5 4 5 6 7 8 9 10 11 11 11 11
11 10 7 6 3 1 2 1 1 5 5 3 5 6 5 7 4 4 8 7 7 9 9 10 12 14 15 13 12 12 11 12 11 10 10 11 14 17 19 20 20 19 19 19 20 20 20 17 22 26 26 27 26 27 30 32 32 30 28 25 24 25 26 26 24 22 22 22 17 14 15 14 12 10 8 7 6 5 7 8 7 5 5 5 5 5 4 5 6 7 8 9 10 10 10 10 10
11 10 9 8 6 4 5 5 4 5 3 1 3 6 5 6 5 5 9 9 9 10 9 10 11 12 12 11 11 11 11 12 11 10 11 11 12 15 18 20 21 22 21 19 19 18 16 22 24 24 24 25 26 28 31 31 32 30 27 24 23 24 25 26 26 25 24 23 20 18 18 16 13 10 8 7 7 8 9 9 7 5 5 5 5 5 5 6 7 8 9 10 11 11 11 11 11
12 11 12 10 7 7 7 6 3 3 3 1 1 4 3 4 5 8 12 12 10 10 10 10 8 7 8 10 11 11 13 13 11 10 11 12 12 15 18 20 21 22 21 20 19 18 21 28 27 24 22 23 26 26 26 26 27 27 25 23 23 24 25 26 26 25 25 23 20 19 18 16 13 11 9 8 9 10 10 9 7 6 6 6 6 6 6 7 8 9 11 11 13 13 12 13 13
7 5 7 7 5 5 5 5 4 3 3 2 2 3 4 4 3 4 7 6 5 7 9 9 7 5 7 9 11 12 14 14 12 12 12 13 15 17 17 18 20 22 22 21 20 19 25 30 28 22 19 22 22 19 20 23 24 23 23 22 22 23 24 26 26 25 24 23 20 19 17 15 13 11 10 9 11 12 10 9 7 7 8 7 7 6 7 8 8 10 12 13 14 14 13 14 14
4 2 5 6 4 3 2 1 2 3 2 3 3 3 2 3 2 0 2 4 4 5 7 8 7 7 9 10 11 13 14 14 13 13 13 14 16 18 18 18 20 22 22 22 21 21 24 28 27 22 21 23 20 18 20 22 22 22 21 21 22 23 24 25 25 24 24 22 20 18 16 14 12 11 11 12 13 12 10 9 9 9 9 9 8 7 7 8 9 11 13 14 15 15 14 15 15
4 5 7 4 2 4 3 1 2 1 4 3 2 4 4 4 5 1 2 4 4 3 5 8 8 10 11 10 11 12 13 14 14 13 14 14 15 17 19 20 21 22 23 23 22 21 22 27 31 29 26 23 22 22 23 23 23 23 21 21 23 23 24 24 25 25 24 22 19 17 15 13 12 11 12 14 14 12 11 10 10 11 10 10 8 7 8 9 10 12 14 15 15 15 14 15 15
6 7 6 4 3 1 1 3 2 3 6 3 2 6 6 5 4 2 2 4 5 4 5 7 8 10 11 10 11 12 13 14 14 14 14 13 14 17 19 21 23 23 23 22 22 22 21 26 33 32 25 22 23 25 25 25 25 22 19 20 21 23 24 24 25 26 25 22 20 18 16 13 13 13 15 16 15 13 12 12 11 12 11 10 9 8 9 9 11 13 14 15 15 14 14 16 16
5 6 5 3 4 4 2 2 3 5 5 2 3 4 4 6 6 3 3 6 6 5 6 8 10 12 11 10 11 13 14 14 14 14 13 12 14 18 20 21 22 22 21 22 22 22 21 25 33 32 25 22 23 23 24 24 23 20 17 18 20 24 25 24 25 27 25 23 21 19 16 14 15 16 17 17 16 14 14 13 13 13 12 11 9 9 9 10 11 14 15 16 15 14 15 17 17
2 6 6 2 2 4 3 1 2 5 4 2 3 3 3 6 6 8 9 7 6 6 7 9 12 12 10 10 11 13 14 14 13 14 14 13 14 18 21 21 21 20 20 22 22 21 20 24 31 29 25 22 21 21 22 22 21 18 17 18 21 24 26 25 26 27 25 23 21 19 17 16 17 18 18 17 16 15 15 14 14 13 12 11 10 10 10 11 13 15 16 16 16 15 17 18 17
6 9 9 4 2 2 2 1 0 2 3 3 3 3 4 4 4 9 11 4 5 8 8 8 8 9 8 9 11 12 13 13 13 14 15 14 15 18 21 20 19 18 19 21 22 21 20 24 27 25 24 23 22 22 22 21 20 18 19 22 23 24 24 26 28 27 25 24 21 19 18 17 19 19 18 18 16 16 16 15 15 14 13 12 11 11 11 12 14 16 16 17 16 17 18 18 17
9 7 7 6 4 4 6 5 1 0 0 2 2 2 4 3 2 5 5 1 3 7 7 6 6 8 9 9 11 12 12 13 13 14 14 13 14 17 20 20 19 18 20 22 22 21 21 23 25 24 22 24 24 22 21 21 20 17 18 22 24 23 23 26 28 27 26 24 22 20 19 18 19 19 19 18 17 17 17 16 15 14 13 12 12 12 12 13 15 16 17 18 18 18 19 18 16
Wind_Direction
327 331 329 327 329 323 329 2 318 38 1 283 304 298 212 219 294 301 330 357 5 17 328 293 160 135 120 133 155 146 114 145 57 280 20 65 44 153 173 180 181 173 164 162 162 167 173 175 167 163 163 158 158 156 155 153 152 150 146 143 144 146 144 140 137 134 131 129 126 123 122 122 122 123 124 122 120 114 112 112 113 112 109 115 113 109 104 97 94 92 91 87 81 75 75 83 97
327 327 325 322 341 341 193 1 304 353 317 290 269 238 48 251 299 323 339 358 12 0 341 87 161 137 57 68 97 138 165 5 21 32 42 108 110 139 172 181 178 171 162 160 160 164 170 173 168 164 164 160 160 159 156 154 152 147 144 143 145 145 142 140 138 136 135 133 130 129 128 127 126 127 128 123 122 116 113 115 115 112 109 111 107 102 96 91 89 85 86 86 84 77 67 65 89
332 336 330 311 10 17 114 338 268 233 289 285 278 164 121 274 305 318 303 317 9 341 320 121 171 212 214 141 107 159 70 64 96 102 101 141 137 146 163 160 168 164 157 158 160 164 166 171 169 165 164 160 160 161 158 155 150 145 144 145 145 143 143 142 140 139 138 136 133 134 133 132 130 132 132 127 126 121 115 114 115 114 108 103 97 93 86 81 80 79 79 78 76 68 55 38 56
336 352 344 322 77 23 109 43 206 222 262 272 285 172 153 252 285 284 277 289 323 337 320 159 178 171 255 256 125 127 46 125 186 154 139 157 159 149 147 150 157 155 157 159 161 166 167 170 168 165 164 161 162 162 159 155 149 146 145 145 144 144 145 143 143 142 141 139 135 136 136 134 133 137 137 132 131 128 123 118 117 117 109 102 95 89 81 74 71 74 74 68 63 57 55 49 62
325 21 5 350 188 309 109 87 121 210 245 224 273 236 153 217 263 262 277 305 308 308 337 314 266 82 269 286 59 178 82 133 156 164 133 144 163 148 143 150 152 154 159 161 163 166 167 169 167 165 164 161 163 163 160 155 149 147 146 145 145 146 146 144 147 145 143 143 139 138 138 136 134 140 142 137 134 132 129 123 118 116 110 105 98 88 79 72 68 69 68 64 61 64 74 78 86
164 88 47 62 107 24 149 221 187 213 237 205 263 274 171 202 248 245 288 313 306 291 43 324 284 259 235 89 53 53 358 302 129 173 146 148 164 151 146 152 153 157 159 162 164 164 167 168 166 165 164 162 163 163 160 154 150 148 146 146 147 147 147 147 148 147 147 147 144 141 141 139 135 140 146 144 142 139 136 130 124 117 110 110 107 95 82 72 69 69 69 67 70 81 90 93 96
161 143 50 79 97 345 206 229 219 221 223 199 253 271 256 193 214 232 290 306 302 310 47 143 233 273 248 136 104 65 14 288 299 200 163 156 160 153 151 153 153 157 159 163 165 165 167 168 167 166 163 162 162 163 159 153 151 150 149 148 148 148 149 148 149 151 152 150 145 142 141 141 138 140 145 148 152 154 149 142 134 124 120 120 116 106 90 79 73 73 73 71 76 85 91 94 95
148 156 346 186 149 5 202 226 226 217 208 226 260 263 267 145 184 237 235 286 315 323 342 341 93 286 291 119 193 59 29 337 256 193 163 155 154 153 154 154 154 158 160 162 164 165 170 170 168 166 164 163 162 162 157 154 154 152 151 150 150 150 149 149 152 154 152 150 144 142 142 140 140 143 148 149 152 159 159 152 141 131 138 130 118 117 102 90 81 78 76 73 74 78 83 85 86
104 75 210 212 183 205 202 224 232 222 219 236 254 252 254 142 207 252 228 233 276 272 296 327 163 256 328 50 184 88 24 36 145 165 158 155 153 154 155 157 157 157 161 163 163 164 172 173 169 166 163 163 163 161 158 157 156 153 152 152 154 152 150 151 155 156 153 149 143 142 142 143 147 149 155 155 151 155 158 158 148 138 143 128 118 120 112 104 91 84 80 76 74 74 74 75 75
76 6 171 176 183 211 215 227 230 221 221 222 250 262 254 155 207 242 232 244 240 244 285 5 224 245 316 335 176 107 50 121 141 152 154 157 155 154 154 158 159 158 160 161 163 165 172 174 170 166 163 166 165 162 160 159 157 154 155 156 156 153 151 152 153 153 151 145 140 142 145 152 159 156 159 158 153 153 155 159 160 153 136 117 120 120 117 113 98 89 84 80 75 71 68 65 64
153 45 144 197 199 217 218 229 237 225 212 216 255 264 258 158 188 241 227 245 219 234 227 123 237 229 272 288 234 97 163 156 153 154 156 158 155 153 152 156 160 161 160 159 163 167 172 173 172 167 165 167 166 164 161 161 159 157 159 160 157 152 149 149 148 144 142 138 138 145 152 161 164 162 163 156 150 151 155 157 162 165 142 118 119 114 121 120 104 94 85 80 71 65 57 51 44
196 141 167 219 207 217 213 224 242 239 211 192 240 248 242 143 186 239 226 234 199 228 227 193 226 189 215 277 279 152 164 173 164 156 157 156 154 152 150 154 162 163 161 160 164 168 169 170 171 169 168 167 166 166 163 164 163 160 163 162 154 148 146 145 142 139 138 135 136 139 143 148 150 154 158 152 144 142 152 155 153 152 135 119 109 106 120 123 111 97 81 72 57 47 36 25 12
218 153 177 214 205 204 197 218 241 256 233 204 231 226 139 150 207 239 218 214 198 217 230 210 202 182 221 292 69 166 171 180 166 157 157 154 153 152 149 154 162 161 162 163 166 168 168 168 169 170 171 169 166 165 165 167 164 164 166 158 148 146 146 143 142 139 135 132 128 125 123 124 124 126 128 128 127 127 141 146 140 132 118 110 103 103 112 118 117 97 70 51 30 18 10 0 350
216 163 199 207 194 193 186 208 223 254 250 201 217 188 156 181 217 230 182 217 216 206 247 213 185 208 229 202 196 186 181 180 165 159 156 153 154 154 150 155 161 161 164 166 168 168 168 168 170 171 171 170 166 166 169 170 167 168 166 153 147 148 146 145 143 138 133 128 122 117 113 110 107 104 103 102 102 104 111 115 115 115 109 108 106 105 110 111 105 76 47 31 18 13 9 3 352
192 161 207 203 168 188 194 202 208 237 248 197 199 166 175 200 143 160 196 243 239 190 311 201 175 213 204 196 222 183 177 171 162 158 153 152 154 154 151 155 160 163 166 167 169 169 169 169 170 171 172 172 168 168 172 171 170 171 164 152 150 150 147 147 143 137 132 126 121 117 112 106 102 99 96 94 93 92 92 93 94 93 93 95 95 97 100 95 89 78 66 54 41 33 26 16 2
182 144 182 219 188 195 197 179 195 230 253 233 171 136 162 174 169 189 221 251 261 99 329 193 198 292 252 234 229 154 164 160 156 156 151 151 152 151 151 157 162 166 169 169 170 170 171 171 171 173 174 175 171 170 172 170 172 172 162 154 152 149 147 147 141 138 132 125 122 118 114 109 104 101 97 91 90 89 88 89 88 87 87 87 88 89 91 92 90 85 75 63 50 37 23 12 0
139 181 207 220 195 198 181 168 188 205 244 245 155 141 167 151 186 220 178 223 236 133 75 54 359 344 326 321 116 142 153 153 155 155 152 154 153 154 156 162 167 168 171 171 173 172 174 175 174 175 176 176 172 171 170 168 172 168 160 156 153 149 148 145 139 136 130 124 122 118 115 110 107 103 98 92 90 88 88 89 88 88 87 87 88 89 92 93 91 86 74 58 46 29 15 3 353
176 190 210 214 191 189 171 177 189 170 228 247 136 172 176 157 169 168 174 146 161 143 93 50 32 31 39 95 126 141 149 154 158 159 159 161 160 162 164 170 172 171 171 172 175 175 176 177 177 177 177 177 172 172 171 167 169 165 161 159 154 150 148 145 140 136 129 125 124 120 115 111 109 103 96 94 93 91 90 90 90 90 91 91 90 92 94 94 92 84 64 41 26 11 0 353 347
195 170 208 215 178 176 178 184 186 169 221 229 61 179 172 169 157 142 207 197 173 177 118 74 66 68 85 118 134 143 152 158 163 166 167 168 169 168 169 173 175 173 172 172 176 178 179 179 180 179 178 177 173 173 172 168 167 164 166 161 154 151 148 146 141 136 132 129 126 122 117 114 110 105 100 97 93 89 89 89 88 88 91 92 92 93 92 87 79 68 49 25 9 359 355 351 349
197 183 217 213 170 190 202 196 199 196 221 133 110 28 149 168 175 186 229 188 200 216 180 167 152 132 128 137 146 151 159 165 169 172 173 174 174 171 171 174 175 175 174 172 175 180 181 181 180 181 179 176 174 173 171 169 167 166 168 161 155 151 148 146 142 137 133 129 127 122 117 113 108 102 101 98 92 88 88 87 86 85 85 84 83 78 71 65 56 47 28 8 3 360 358 355 352
175 202 221 186 168 203 197 196 216 208 152 136 131 120 179 175 210 218 200 195 223 236 206 194 175 159 155 157 162 164 167 170 175 178 177 178 176 173 176 176 175 173 171 172 176 181 182 181 180 181 180 177 176 174 172 172 170 169 168 162 156 154 152 148 144 138 134 131 127 121 115 111 107 100 97 95 92 92 91 88 87 87 87 84 74 64 52 42 36 28 18 12 12 10 6 359 351
173 208 221 141 161 204 198 196 211 170 160 157 135 220 215 168 210 198 200 235 253 75 208 198 168 163 168 170 169 171 174 178 181 181 181 180 179 177 178 175 172 171 172 176 178 181 181 181 179 178 179 178 178 177 175 175 173 172 169 166 160 158 158 152 148 143 138 135 129 122 116 112 108 102 98 95 90 88 87 84 84 83 83 81 70 58 42 31 25 21 21 21 17 12 5 355 349
207 208 193 166 172 199 202 200 201 164 183 187 176 235 116 115 227 189 223 246 261 47 240 192 167 169 175 172 173 177 180 184 185 185 184 183 183 181 177 173 172 173 176 180 179 178 180 181 179 177 177 178 180 180 177 177 176 174 171 168 164 163 163 159 155 150 144 139 133 125 119 115 110 107 100 93 87 84 86 85 80 74 68 64 60 49 35 25 21 20 18 17 9 4 359 353 351
223 211 175 184 184 200 187 151 176 168 204 206 154 225 159 217 240 152 237 249 268 291 229 182 165 168 175 175 180 184 184 188 188 188 188 187 186 180 175 172 172 174 176 179 178 178 180 181 180 177 177 178 180 181 180 180 179 175 173 170 168 166 165 165 160 154 150 144 138 129 121 118 112 107 101 94 90 86 86 85 75 65 57 51 47 36 28 21 16 15 12 10 3 358 355 353 353
218 208 170 174 187 209 202 164 171 161 216 187 142 238 224 226 244 190 235 259 290 232 166 159 159 168 179 183 185 187 186 189 190 190 192 192 187 179 177 174 172 175 176 177 178 179 180 180 181 180 178 178 180 183 182 183 181 176 175 173 171 169 166 167 163 157 154 148 142 135 126 121 114 109 103 97 93 85 76 74 66 54 48 40 30 20 17 18 15 14 10 6 359 355 354 351 351
204 197 182 179 188 201 205 224 231 203 210 172 181 234 234 212 171 228 245 270 244 160 149 153 163 174 184 188 187 188 189 191 192 192 192 191 186 184 184 179 175 177 175 174 176 179 182 183 183 182 180 179 181 183 185 185 183 179 178 176 172 171 170 168 163 161 160 153 149 143 133 126 120 113 105 98 90 80 69 66 59 52 46 27 14 9 10 19 18 12 6 1 354 353 351 347 347
173 192 198 206 214 190 177 207 210 191 183 182 196 224 230 181 196 226 231 224 187 156 153 163 172 182 187 190 190 191 191 194 194 191 190 189 191 191 188 184 181 178 172 172 175 178 182 185 185 184 182 180 181 183 186 187 184 181 178 176 174 173 173 168 165 166 163 157 157 151 143 137 128 118 108 101 89 81 82 78 68 64 41 12 6 6 7 12 8 359 352 348 346 347 346 343 344
162 186 194 214 231 229 203 201 184 174 186 186 202 229 228 137 209 230 171 177 183 164 165 176 183 189 192 195 194 193 195 196 195 193 194 193 193 191 188 187 183 175 173 174 175 177 180 185 187 185 183 183 183 184 187 189 185 183 178 176 177 175 173 170 168 170 165 162 161 156 154 147 135 124 115 107 95 96 104 102 95 68 17 4 3 2 2 358 352 345 339 338 340 343 343 343 347
162 170 187 204 224 236 224 218 203 194 203 178 184 230 229 192 201 208 158 176 187 180 176 181 192 194 196 200 197 196 197 196 197 201 202 197 191 188 188 188 181 174 177 177 175 176 179 184 186 185 185 186 187 187 189 191 187 182 180 178 179 177 174 172 173 173 170 170 169 169 167 154 142 131 128 123 110 112 120 128 116 48 3 4 357 353 350 343 340 337 335 337 342 344 344 349 356
163 164 193 185 202 232 215 204 197 200 206 161 177 236 228 205 197 162 163 179 185 189 185 186 196 199 201 202 200 201 200 200 203 206 205 200 192 190 190 188 183 176 175 178 177 178 179 182 184 184 187 189 191 191 191 194 190 182 182 181 181 179 176 176 177 177 176 178 181 186 184 164 152 143 155 157 131 131 145 150 141 28 5 360 343 331 330 331 334 338 343 347 348 347 350 355 360
164 156 202 192 200 210 181 179 178 194 207 162 195 246 235 206 188 171 179 183 183 190 191 191 196 201 204 202 204 206 206 209 210 209 207 201 194 193 193 188 187 184 179 180 181 181 181 183 183 183 189 190 193 196 193 193 191 186 185 183 182 179 179 180 180 181 180 186 193 198 197 177 166 169 176 174 140 153 165 173 173 98 355 345 322 310 321 331 339 346 353 356 353 353 357 358 358
173 175 193 195 209 180 146 175 177 190 194 177 202 239 251 223 184 175 184 188 189 195 192 191 198 202 205 203 206 209 212 217 215 214 211 203 198 197 194 189 190 193 192 186 181 182 183 183 182 182 188 191 194 197 194 192 191 189 187 187 185 182 184 184 184 185 184 194 201 202 202 191 193 192 181 186 188 172 186 198 189 297 333 322 301 308 322 330 342 353 356 1 2 358 356 356 358
188 205 190 176 198 191 161 166 190 193 169 186 209 228 253 230 187 184 182 188 195 201 195 194 202 204 206 205 206 212 215 218 219 217 211 204 205 203 194 193 196 199 199 193 183 183 185 183 183 183 186 191 193 194 192 190 190 191 192 193 192 191 191 189 189 189 192 204 203 199 204 206 208 196 185 185 175 187 202 206 200 314 318 300 298 314 322 329 346 358 1 6 7 2 357 355 358
184 197 173 154 185 191 180 157 203 198 175 190 205 223 237 217 114 192 183 188 193 200 201 198 205 209 210 209 208 214 216 221 222 215 208 204 205 203 195 196 200 201 202 198 190 185 184 182 185 185 186 190 192 192 191 191 191 192 194 198 199 198 196 194 196 198 202 203 196 200 208 209 201 186 177 163 156 190 200 205 248 303 307 302 309 317 325 336 347 359 10 11 7 8 3 357 357
157 170 165 144 176 192 199 177 171 188 192 199 188 212 232 208 106 191 189 193 195 199 202 197 206 212 211 211 213 217 218 224 225 213 204 201 201 200 194 193 199 202 202 199 193 187 185 182 185 187 188 192 194 192 191 190 192 193 194 198 200 199 200 202 204 201 197 193 192 203 208 202 190 176 167 155 168 192 196 219 268 288 302 307 312 324 340 345 347 359 17 19 10 8 6 3 359
149 167 168 161 179 194 202 184 166 181 192 203 187 202 226 204 145 187 195 198 204 207 206 200 207 214 214 215 219 220 221 228 226 207 194 194 198 197 191 188 194 200 200 195 190 189 187 182 183 188 189 192 193 194 194 189 190 192 189 191 193 194 201 207 199 188 185 186 193 199 198 191 180 172 165 162 179 192 200 229 269 289 300 305 314 335 344 345 352 5 21 22 18 9 6 12 6
150 164 171 172 188 188 189 192 184 185 189 201 193 202 223 207 167 190 194 195 208 212 212 213 213 217 217 218 222 221 224 230 218 193 182 187 195 195 190 186 188 194 196 193 189 188 187 182 182 185 190 192 191 191 189 184 185 189 186 183 182 186 195 196 184 179 181 185 191 191 185 181 176 171 166 165 181 197 216 249 283 291 297 308 323 340 341 352 10 24 24 17 19 18 16 18 15
153 169 175 177 195 181 176 194 180 180 199 200 187 207 225 210 170 190 190 191 206 207 207 211 212 217 220 223 226 224 228 227 206 186 176 182 191 191 187 185 186 189 192 193 189 187 188 184 180 182 188 189 186 184 182 183 187 190 193 185 176 180 186 185 178 177 181 182 183 180 176 176 174 169 164 168 186 210 241 265 277 268 300 354 353 355 357 18 32 32 26 17 19 31 31 23 24
160 172 177 175 185 152 154 197 166 172 203 200 175 208 225 197 134 186 192 195 205 204 205 207 207 212 217 221 224 224 229 227 218 208 191 188 188 185 183 186 190 191 193 194 191 189 189 186 180 182 187 182 178 180 179 187 194 195 198 192 183 181 178 177 177 177 180 179 175 173 173 172 169 165 163 172 195 223 257 254 225 168 93 40 19 10 25 37 34 27 25 25 26 44 46 31 31
162 169 177 175 167 159 165 174 148 157 210 193 167 204 229 166 108 210 211 208 211 209 214 219 218 219 220 222 226 226 228 228 224 217 204 193 186 183 184 186 189 192 194 194 192 192 191 188 182 183 185 177 174 177 178 188 195 194 196 191 184 177 169 170 173 172 175 175 170 169 169 167 164 163 162 169 195 219 223 195 154 132 106 58 36 30 54 40 31 22 23 35 44 54 56 43 40
163 181 179 162 162 183 155 132 138 136 110 130 150 197 238 190 180 208 218 218 220 218 221 227 229 230 231 233 234 232 231 230 226 216 205 194 184 182 184 185 187 190 195 195 193 191 189 189 188 188 185 173 173 177 179 186 188 185 180 172 169 162 155 161 162 161 168 169 166 166 165 162 162 160 156 159 173 184 168 146 132 128 110 80 73 71 64 42 25 23 28 44 50 55 66 59 53
166 215 202 156 155 165 112 112 153 168 188 171 163 212 219 185 202 195 168 201 219 220 224 228 226 226 229 233 232 231 233 233 230 220 206 194 182 179 183 185 186 192 197 196 196 193 188 187 189 193 189 174 172 176 179 182 182 181 172 162 160 153 149 160 162 161 165 165 164 163 161 158 157 153 149 155 158 159 148 121 121 136 130 115 101 77 58 37 22 30 39 47 50 54 69 74 62
167 191 195 158 134 139 126 138 171 184 189 140 224 227 211 167 208 194 166 196 215 216 223 230 225 221 223 226 227 227 230 230 229 223 206 188 179 179 186 187 187 193 196 196 199 196 189 189 188 191 194 183 174 174 179 181 179 180 174 167 166 161 158 166 170 169 166 164 162 159 157 152 150 151 148 153 151 138 122 109 130 146 139 124 99 66 45 38 35 42 45 49 53 58 68 76 65
165 158 167 162 138 134 123 128 165 192 148 111 192 226 232 220 200 148 170 198 215 216 225 231 224 221 222 225 226 225 226 227 226 219 205 189 182 182 187 188 187 191 192 194 198 194 190 193 190 190 194 189 178 175 177 179 179 179 174 169 169 167 167 168 169 168 164 159 157 155 155 152 149 153 152 153 145 126 109 122 147 154 140 121 85 52 43 45 48 51 51 53 58 61 67 74 70
162 151 159 161 152 139 118 131 133 42 216 200 175 169 221 228 163 97 168 201 223 222 225 228 223 222 224 227 228 228 229 228 224 218 207 192 184 184 187 191 189 189 191 193 196 196 194 192 185 186 191 186 178 180 178 178 182 181 176 171 168 166 167 165 163 161 156 151 152 154 156 155 154 156 154 151 137 121 121 143 155 153 137 110 71 53 53 56 58 63 66 63 62 64 65 68 70
140 134 132 125 134 138 136 244 155 63 237 208 169 170 218 230 168 145 171 210 227 225 225 226 223 222 221 223 225 225 225 224 220 213 204 191 183 181 185 191 191 188 190 193 197 199 199 193 179 178 185 184 181 186 182 179 183 183 180 175 169 165 163 162 158 155 156 156 154 156 159 158 158 158 154 144 131 124 141 154 155 148 131 97 70 64 63 67 74 75 73 70 67 68 66 63 65
135 139 129 109 107 127 146 323 340 224 240 208 169 174 220 236 189 168 190 212 214 213 224 225 221 219 218 218 219 217 215 215 212 198 191 188 180 177 181 188 189 185 187 194 198 199 202 196 165 157 171 184 187 189 186 180 182 185 183 178 172 168 165 165 163 161 162 161 157 157 162 162 161 162 154 142 134 136 149 155 152 141 117 90 75 74 76 77 84 81 79 76 71 69 67 63 63
152 160 157 143 133 125 149 131 206 221 227 188 173 176 203 230 215 179 204 214 206 211 221 219 215 213 212 212 209 206 207 209 203 186 180 182 178 176 179 185 185 181 185 193 197 201 199 175 143 144 167 182 185 190 187 180 178 182 181 178 176 175 173 173 171 166 165 165 160 158 164 165 164 163 154 145 142 146 154 152 148 135 111 96 83 82 86 88 92 90 85 80 75 72 68 66 67
175 169 166 172 169 164 186 191 193 213 218 58 166 177 199 238 246 239 234 232 225 223 227 225 221 212 203 199 194 192 198 200 193 182 180 182 182 181 180 182 181 179 184 188 193 200 175 144 146 163 176 179 182 189 188 180 177 178 178 178 180 180 179 179 175 170 171 170 165 164 167 168 167 163 155 150 147 151 156 152 144 135 116 101 91 90 96 100 99 94 89 85 81 79 74 72 74
184 175 177 183 174 175 191 190 180 193 189 44 108 173 209 254 243 231 233 236 232 228 232 235 232 212 189 183 181 185 192 192 186 182 185 187 188 186 181 180 178 178 181 184 191 188 154 145 165 180 177 178 183 187 185 176 173 175 177 179 181 180 180 181 179 176 175 173 169 169 171 172 170 163 157 153 149 153 157 152 147 136 119 106 99 102 104 106 103 96 93 90 88 84 79 78 79
182 172 178 184 177 184 186 177 172 162 150 125 134 183 202 203 197 207 228 254 254 239 244 242 230 199 175 173 176 183 189 188 187 188 190 192 191 186 178 175 177 179 181 183 187 178 156 157 172 177 175 179 179 177 177 174 173 176 180 181 181 181 181 181 181 179 176 173 171 171 171 172 170 163 161 156 151 157 158 151 148 134 120 111 105 107 108 109 107 102 98 95 92 88 83 83 83
185 144 171 192 184 153 118 120 154 132 138 155 179 218 220 231 268 210 232 265 250 242 242 226 210 177 164 173 177 182 190 188 188 190 189 191 189 183 177 173 175 179 181 182 181 175 166 163 166 172 180 179 169 165 175 181 180 179 181 182 182 182 181 181 181 179 178 175 171 169 168 169 169 166 163 158 156 160 159 152 146 132 120 111 108 111 115 117 111 105 103 99 96 92 87 87 87
161 175 183 176 117 117 119 112 43 88 209 182 162 220 234 262 272 172 175 231 216 216 214 199 188 169 168 179 178 181 191 189 188 190 190 189 184 179 178 176 177 179 180 180 180 178 169 158 161 174 181 174 168 173 181 185 182 178 181 185 184 185 186 184 182 180 180 176 169 166 165 165 168 167 161 159 159 160 159 155 146 131 120 111 111 118 119 119 114 109 107 102 98 95 90 90 91
152 185 175 114 70 51 122 156 138 177 211 193 152 213 219 229 242 121 139 223 219 198 188 181 174 175 181 182 176 181 189 190 190 191 192 189 180 176 176 175 176 178 179 182 183 179 169 157 161 172 176 172 176 181 182 180 177 175 179 183 185 188 189 186 181 180 180 174 166 164 165 165 169 168 161 158 159 159 158 156 146 133 123 116 116 120 120 120 117 112 109 104 100 97 94 94 96
177 172 150 135 189 199 166 163 167 173 194 194 178 216 231 213 223 236 193 212 221 193 176 184 185 188 191 180 175 182 186 188 191 190 190 187 178 175 174 171 171 174 179 185 184 179 172 157 155 165 178 183 184 183 179 176 176 175 175 179 184 189 190 185 180 180 178 172 166 165 166 167 169 167 162 159 159 160 160 158 149 137 127 122 119 120 123 124 121 116 110 106 102 99 98 99 100
180 162 161 200 211 183 181 179 172 178 180 177 177 196 235 212 223 250 236 219 205 182 182 198 197 193 191 177 176 183 185 188 190 189 189 186 178 175 173 167 165 171 179 184 183 180 174 156 153 168 183 184 183 183 180 177 179 179 175 178 185 188 189 184 180 180 177 171 168 166 167 168 168 168 165 162 162 164 164 161 153 142 131 126 123 122 126 128 125 119 113 108 105 102 102 103 103
176 181 178 179 151 148 192 182 86 192 175 174 184 194 228 214 205 239 242 225 186 190 195 204 200 192 187 177 179 184 185 188 190 189 189 186 177 171 170 166 164 172 180 182 181 178 171 158 159 175 181 176 180 184 182 179 181 182 179 182 186 187 186 183 180 179 176 171 169 168 168 168 168 169 167 165 166 167 167 164 156 146 137 129 125 126 130 131 127 121 115 111 108 107 106 105 105
179 186 178 176 164 155 185 190 179 319 143 164 188 214 231 213 190 235 245 133 186 204 197 192 187 187 188 184 184 185 185 188 190 189 187 183 174 168 167 166 166 173 179 179 178 176 170 161 162 173 175 172 178 181 181 181 181 181 180 181 184 183 183 183 179 177 174 171 170 169 168 168 169 169 168 169 170 169 169 167 159 150 142 134 129 129 133 134 130 123 118 114 111 111 111 109 107
Height
789 789 788 788 787 786 789 790 805 813 812 824 821 816 813 805 805 804 802 798 799 797 790 790 788 788 792 794 794 793 793 797 799 805 807 797 793 795 796 798 799 800 802 805 807 809 811 813 814 815 817 818 818 818 818 818 819 819 820 821 822 824 824 826 827 828 829 829 830 830 830 830 831 832 832 832 833 834 834 835 835 835 836 836 836 837 837 838 839 839 840 840 840 840 840 841 841
789 790 788 788 787 788 794 795 814 822 818 828 821 815 812 803 805 804 802 800 799 794 788 788 788 788 789 788 789 792 794 793 792 794 795 793 794 796 797 799 800 801 803 806 807 809 811 813 814 815 817 818 818 818 818 819 819 819 820 821 823 824 825 826 827 828 829 830 830 831 831 831 832 832 833 833 834 834 835 835 836 836 836 837 837 838 838 839 839 839 840 840 840 841 841 841 841
789 789 788 788 788 789 797 801 816 827 827 830 817 811 811 806 805 802 799 796 794 790 788 789 789 789 789 792 792 795 796 793 791 791 792 793 794 795 797 799 801 803 805 807 808 810 812 813 814 815 816 818 818 818 819 819 819 820 821 822 823 824 825 826 827 828 829 830 831 831 831 832 832 832 833 833 834 835 835 836 836 837 837 838 838 838 839 839 839 840 840 840 841 841 841 841 842
790 789 788 788 792 795 802 810 816 824 828 829 819 808 808 807 802 799 795 792 791 790 790 790 791 787 788 796 793 793 795 792 790 790 791 792 792 793 796 799 802 805 807 808 809 810 812 813 815 815 816 817 818 819 819 820 820 820 821 822 823 824 825 827 828 829 830 831 831 832 832 832 833 833 833 834 835 835 836 836 837 837 838 839 839 839 839 840 840 840 840 841 841 841 841 842 842
789 789 789 787 795 800 807 819 821 822 821 821 816 805 805 803 799 798 794 791 790 790 791 792 793 787 786 791 790 793 795 791 790 788 789 790 792 792 795 800 803 805 807 808 809 811 812 814 815 816 817 818 819 819 820 820 821 821 822 823 823 825 826 827 828 830 831 831 832 832 832 833 833 833 834 834 835 836 836 837 837 838 838 839 840 840 840 840 840 841 841 841 841 841 841 842 842
789 789 789 787 796 800 808 821 822 821 810 808 810 801 800 800 798 799 794 791 789 788 790 792 793 790 789 789 788 792 792 791 790 788 788 789 791 793 795 799 803 805 807 808 810 811 813 814 816 817 817 818 819 820 820 821 822 822 822 823 824 825 826 827 829 830 831 832 832 832 833 833 834 834 834 835 835 836 836 837 837 838 839 839 840 840 841 841 841 841 841 841 841 841 842 842 842
789 790 791 793 800 802 811 818 816 815 806 802 804 796 796 797 798 798 798 795 791 788 789 791 790 791 792 789 790 791 790 790 789 788 788 788 790 792 795 798 802 805 807 809 810 812 813 815 816 817 818 819 820 821 821 822 823 823 823 824 824 825 826 828 829 830 831 832 832 833 833 834 834 835 835 835 836 836 837 837 837 838 839 839 840 840 841 841 841 841 841 841 842 842 842 842 843
788 791 796 799 808 812 815 816 811 810 807 804 800 794 794 796 797 798 799 799 796 792 790 790 788 793 792 786 791 791 789 790 788 789 788 789 790 792 795 798 802 804 807 809 810 812 814 815 816 817 818 820 821 821 822 823 823 823 824 825 825 826 827 828 829 830 831 832 833 833 834 834 835 835 836 836 836 836 837 837 838 838 838 839 840 840 841 841 841 842 842 842 842 842 843 843 843
787 792 798 801 810 817 817 815 812 809 808 804 797 792 793 796 797 797 799 800 797 794 792 789 788 794 792 788 793 791 789 790 789 789 789 791 791 791 795 798 801 804 807 809 811 812 814 816 816 817 818 820 821 822 823 823 824 824 825 825 826 827 828 828 829 830 831 832 833 833 834 835 835 835 836 836 836 836 837 838 838 838 838 839 840 840 841 841 842 842 842 842 843 843 843 843 844
789 792 798 804 811 817 817 815 811 807 805 802 795 790 792 795 796 797 798 798 796 795 793 790 790 793 791 792 793 791 791 791 790 791 791 793 793 792 795 799 802 803 806 808 810 812 814 816 816 817 819 820 821 822 823 824 824 825 826 826 827 828 828 829 830 830 831 832 832 833 834 835 835 835 836 835 836 836 837 838 838 839 839 839 840 840 841 841 842 842 842 843 843 843 843 844 844
793 795 797 806 813 816 815 811 806 802 800 801 797 790 789 793 796 797 797 796 795 795 792 792 793 792 792 793 792 791 791 791 791 791 792 794 795 794 795 800 803 804 806 808 810 812 813 815 817 818 819 820 822 823 824 825 825 825 826 827 828 829 829 830 830 831 831 832 832 833 834 834 835 835 836 836 836 836 837 838 838 839 839 840 840 840 841 842 842 842 843 843 843 843 844 844 844
794 797 798 805 809 808 808 806 802 798 798 802 797 789 787 792 797 795 794 796 795 795 792 792 790 787 794 795 791 791 790 792 792 792 793 794 796 797 797 801 804 805 806 807 809 811 813 815 817 818 819 821 822 824 825 826 826 826 827 828 829 830 830 831 831 831 831 832 832 833 834 834 835 835 836 836 836 836 837 837 838 839 839 840 840 840 841 842 842 842 843 843 843 843 843 843 843
792 795 797 802 803 801 803 805 801 798 798 798 793 787 787 790 793 790 791 794 794 796 791 786 783 784 793 794 791 791 790 791 792 793 794 795 797 798 799 802 804 805 807 808 810 811 814 815 817 819 820 822 823 824 826 827 827 827 828 829 830 830 831 831 831 831 831 832 833 833 834 835 835 836 836 837 837 836 837 837 838 839 839 840 840 841 841 841 842 842 842 843 843 843 843 843 843
791 793 793 799 803 800 800 804 802 803 796 789 788 786 787 788 788 787 789 793 792 791 785 779 780 786 791 792 791 790 789 790 792 793 794 796 797 799 800 802 804 806 807 809 810 812 814 816 818 820 821 823 824 825 826 827 828 828 829 829 830 831 831 831 832 832 832 832 833 834 835 836 836 837 837 837 837 837 837 837 838 838 839 840 840 841 841 841 842 842 842 842 843 842 842 842 842
789 792 793 798 805 802 799 800 800 802 792 784 785 785 787 787 785 787 787 790 788 782 780 779 780 786 788 786 786 784 786 789 791 794 795 796 798 799 800 802 805 806 808 809 811 813 815 817 818 820 821 822 823 825 826 827 828 829 830 830 830 831 831 832 832 832 833 833 834 835 836 837 837 838 838 838 838 838 837 838 838 839 839 840 840 840 841 841 841 842 842 842 842 842 842 842 842
788 791 796 799 803 803 799 798 798 800 791 781 783 783 787 787 784 786 783 782 784 780 782 783 780 783 783 781 779 779 784 789 791 794 794 796 797 799 800 802 805 806 808 810 812 813 815 817 818 819 820 822 823 824 825 827 828 829 830 831 831 831 832 832 833 833 833 834 834 836 837 837 838 838 839 839 839 838 838 838 838 839 839 840 840 840 841 841 841 842 842 842 842 842 842 842 841
788 790 798 799 800 800 795 796 797 795 787 779 781 784 787 788 784 783 780 779 783 783 784 785 783 782 781 780 778 779 785 788 790 792 794 795 797 798 800 803 805 806 808 809 811 813 814 816 817 818 819 821 823 824 826 827 828 829 830 831 831 832 832 833 833 834 834 834 835 836 837 838 839 839 839 840 840 839 839 839 839 839 840 840 840 840 841 841 841 841 842 842 842 842 841 841 841
787 791 797 795 795 792 786 788 787 785 783 778 780 783 784 787 784 781 782 783 784 786 786 786 785 784 783 782 781 782 785 788 789 791 792 793 794 796 799 801 804 805 807 809 811 812 814 815 816 818 819 821 822 824 826 827 828 829 831 831 832 833 833 834 834 835 835 835 836 837 838 838 839 840 840 840 840 840 840 840 840 840 840 841 841 841 841 841 841 841 841 841 841 841 841 841 841
785 791 794 788 786 784 779 779 780 781 781 779 782 783 782 783 782 781 783 786 786 786 788 789 789 788 786 785 785 785 786 787 789 789 790 791 792 793 796 800 802 804 806 808 809 811 813 814 815 817 818 820 822 824 825 827 828 829 831 832 833 833 834 834 835 836 836 836 837 837 838 839 839 840 840 841 841 841 840 840 840 840 841 841 841 841 841 841 841 841 841 841 841 841 841 841 840
782 788 790 783 780 781 778 779 780 780 780 781 785 784 782 782 780 780 782 785 786 785 787 789 791 790 789 787 787 786 787 788 788 789 790 790 791 793 795 798 800 802 804 806 808 810 812 813 815 817 818 820 822 824 825 827 828 829 831 832 833 834 835 835 835 836 836 837 837 838 838 839 840 840 841 841 841 841 841 841 840 841 841 841 841 841 841 841 841 841 841 841 840 840 840 840 840
782 783 782 779 780 781 780 781 780 781 782 783 784 785 784 781 780 780 781 785 785 781 779 781 784 787 788 786 786 786 787 787 788 789 789 790 792 794 795 797 799 801 803 805 807 809 810 812 814 816 818 820 822 823 825 826 828 830 831 832 834 834 835 835 835 836 837 837 838 838 839 839 840 840 841 841 841 841 841 841 841 841 841 841 841 841 841 841 841 841 840 840 840 840 840 840 840
781 780 777 777 781 781 779 779 780 782 783 783 784 785 782 780 780 779 780 783 780 775 773 773 776 780 782 781 783 784 785 786 787 787 788 790 791 793 794 796 799 801 803 804 805 807 809 811 813 815 817 819 821 823 825 826 827 829 831 832 833 834 834 835 836 836 837 837 838 838 839 839 840 841 841 841 841 841 841 841 841 841 841 841 841 841 841 841 841 840 840 840 840 840 840 840 839
778 778 777 778 779 779 777 777 779 781 782 783 783 782 780 781 781 779 779 778 774 771 771 771 772 774 776 778 780 781 783 784 785 786 787 788 789 791 792 795 797 799 801 802 804 806 808 810 812 814 816 818 821 822 824 825 827 828 829 831 832 833 834 835 836 836 837 838 838 838 839 839 840 841 841 841 841 841 841 841 841 842 842 842 841 841 841 841 840 840 840 840 840 840 840 839 839
776 777 778 778 777 776 776 777 778 779 780 781 781 780 781 782 781 780 778 773 770 771 771 770 771 772 775 777 779 780 782 783 785 786 786 787 788 790 792 794 796 797 799 801 803 805 807 809 811 813 814 817 819 822 823 825 826 828 829 830 831 832 834 835 836 837 837 838 838 838 839 839 840 841 841 841 841 841 841 841 842 842 842 842 842 842 841 841 841 840 840 840 840 839 839 839 838
776 776 777 777 777 775 775 777 778 779 779 780 781 781 781 780 780 780 776 771 770 771 770 770 771 773 776 777 779 781 783 784 785 785 786 788 789 791 793 794 795 796 798 800 803 805 807 809 811 812 813 815 818 821 823 824 826 827 829 830 831 832 833 835 836 837 837 838 838 838 839 839 840 840 841 841 841 841 841 841 842 842 842 842 842 842 842 841 841 841 840 840 840 839 839 838 838
772 774 775 775 776 775 776 777 777 778 779 779 781 782 780 778 780 779 773 771 772 771 770 771 772 774 776 777 779 780 782 783 783 784 786 787 789 790 791 792 794 795 797 800 803 805 807 809 810 812 813 815 817 820 822 824 826 827 828 830 831 832 833 834 835 836 837 838 838 839 839 839 839 840 840 840 840 841 841 841 842 842 843 842 842 842 842 842 842 841 841 840 840 839 839 838 837
769 771 773 773 773 774 776 776 776 777 778 778 780 781 778 777 780 778 773 773 772 772 773 773 773 775 776 777 777 779 781 782 782 784 786 787 787 788 789 791 793 794 796 799 802 804 807 809 810 812 813 815 817 819 822 823 825 827 828 829 831 832 832 833 835 836 837 838 838 839 839 839 839 840 840 840 840 840 841 841 842 842 843 843 843 843 842 842 841 841 841 840 840 839 838 837 836
768 770 773 774 773 774 775 775 776 777 777 777 777 779 778 779 780 774 771 773 772 772 773 773 774 775 775 776 777 778 780 781 782 783 783 783 783 785 788 789 791 793 796 798 800 803 805 808 810 812 813 815 817 819 821 823 825 826 828 829 830 831 832 833 835 836 837 838 838 839 839 839 839 839 840 840 840 840 841 841 842 842 843 843 843 843 842 842 841 841 840 840 839 838 838 837 836
768 769 774 776 775 775 773 774 775 776 777 774 776 781 780 778 776 771 771 772 771 771 772 773 774 774 775 776 777 778 779 779 781 780 780 781 782 785 787 788 790 793 795 797 799 801 804 807 810 812 813 815 817 819 821 823 825 826 827 828 829 831 832 833 834 835 836 837 838 839 839 839 839 839 839 840 840 840 840 841 841 842 842 843 843 843 842 841 841 840 840 839 839 838 837 836 835
768 769 771 774 779 777 769 771 774 775 775 771 777 785 778 771 771 771 772 770 772 773 772 773 773 773 774 775 777 778 778 777 777 777 779 781 783 785 786 788 790 792 794 796 798 801 803 806 809 811 813 815 817 819 821 823 825 826 827 828 829 831 832 833 834 835 836 837 838 839 839 839 839 839 839 840 840 840 840 841 841 841 842 843 843 843 842 841 841 840 839 839 838 837 836 835 834
768 771 771 772 778 775 767 769 771 774 775 768 776 786 775 767 769 771 771 769 771 772 771 771 772 772 772 773 776 776 776 775 776 777 779 781 783 785 786 788 790 792 793 795 798 801 803 805 808 810 813 815 817 820 821 823 824 825 826 828 829 831 832 833 834 835 836 837 838 839 840 840 839 839 839 840 841 841 841 841 841 841 841 842 843 843 842 841 840 840 839 839 838 837 835 835 834
766 772 774 773 774 772 768 768 767 769 773 769 775 784 774 765 767 770 770 769 770 770 769 770 770 770 770 772 774 775 775 774 776 777 779 781 783 784 786 787 789 791 792 794 797 800 803 805 807 809 812 814 817 819 821 822 824 825 827 828 830 831 832 833 834 835 836 837 838 839 840 840 839 839 840 840 841 841 842 841 841 840 841 841 842 842 842 841 840 839 838 838 837 836 835 834 834
767 768 771 773 773 772 769 769 766 762 767 771 772 777 772 766 767 769 769 769 769 769 768 768 768 768 768 770 773 774 775 774 775 776 778 780 782 784 786 787 789 790 792 794 796 799 801 803 806 808 810 813 816 818 820 822 823 825 827 828 830 831 832 833 834 835 836 837 838 839 840 840 840 840 840 840 841 842 842 842 841 841 841 841 842 842 841 841 840 839 838 837 837 836 835 834 834
769 769 771 774 772 772 771 769 767 760 764 769 770 771 766 765 769 769 768 767 768 769 768 768 767 767 768 769 772 773 774 773 772 773 777 779 781 783 785 786 788 790 792 794 796 798 800 803 805 807 810 812 815 817 819 821 823 825 826 828 830 831 833 833 834 835 835 836 838 839 839 840 840 840 840 840 841 842 843 842 842 841 841 842 842 842 841 841 840 839 838 837 837 836 836 835 834
768 770 771 774 770 770 768 764 764 762 763 765 769 771 763 762 770 770 768 767 767 767 765 766 766 767 768 769 771 771 771 770 769 772 776 778 780 782 784 786 788 789 791 793 796 798 800 802 805 807 809 811 814 816 818 820 822 824 826 828 829 831 832 834 834 835 835 836 837 838 839 840 840 840 840 840 841 842 843 843 842 842 842 842 842 842 842 841 840 839 839 838 837 836 836 835 834
763 765 764 768 766 766 764 759 759 760 763 764 766 769 761 761 770 771 768 767 767 767 765 765 767 767 768 769 769 769 768 766 767 772 775 776 779 781 783 785 787 789 791 793 796 798 800 801 804 806 808 810 813 815 818 820 822 825 826 827 829 830 832 834 834 835 835 836 837 838 839 839 840 840 840 840 841 842 843 842 842 842 842 843 843 843 842 841 840 839 839 838 837 837 836 836 835
759 762 762 763 762 764 764 760 758 757 761 764 762 763 760 759 765 768 767 768 769 769 768 768 768 767 767 767 766 766 766 765 767 772 774 776 778 780 782 784 786 788 791 793 795 797 798 799 801 804 806 808 811 814 817 820 823 825 827 828 828 829 831 834 834 835 835 836 837 838 838 839 840 840 840 840 841 842 843 842 842 843 843 843 843 843 842 841 840 840 839 838 838 837 837 836 834
757 758 761 763 761 761 762 759 758 758 760 762 762 764 759 756 762 765 767 770 770 768 768 768 767 766 765 764 764 763 763 765 768 771 773 776 777 779 781 783 785 787 789 792 793 795 796 797 799 801 804 806 809 813 816 819 822 825 827 828 828 829 831 834 834 835 836 836 837 837 838 839 840 840 841 841 842 842 843 842 843 843 843 844 844 843 843 841 840 840 839 839 838 837 837 836 835
758 756 758 763 761 760 762 759 758 757 758 760 765 766 757 756 767 768 766 767 765 763 764 764 763 763 763 761 761 762 763 764 767 770 773 775 776 778 780 782 784 786 788 790 791 793 795 796 797 799 801 803 808 811 814 818 820 823 827 828 827 828 831 833 834 835 836 836 837 837 838 839 840 840 841 842 842 843 843 843 843 843 844 844 844 844 843 842 841 840 839 839 838 837 837 836 836
759 757 756 761 762 761 761 760 759 758 758 760 764 765 757 760 773 773 767 764 761 761 761 762 762 761 760 759 760 762 763 763 765 767 771 774 775 777 779 781 783 785 787 789 790 792 794 796 796 797 799 802 806 808 811 815 817 821 825 826 827 829 831 832 834 835 836 836 837 837 838 839 839 840 841 842 842 843 843 843 843 843 844 844 844 844 843 842 841 841 840 839 838 838 838 838 837
762 759 755 758 761 758 756 759 760 760 762 760 761 767 762 760 769 771 768 767 764 763 763 763 763 760 759 760 760 760 760 761 763 766 770 773 774 776 778 780 782 784 786 787 789 791 793 796 798 798 799 801 804 806 808 811 814 819 822 825 827 828 830 832 833 835 836 836 837 838 838 839 839 840 840 841 842 843 843 844 844 844 844 844 844 844 843 842 842 841 840 839 839 838 839 839 839
763 761 756 755 756 756 757 759 758 761 765 759 760 771 768 760 762 764 768 772 769 767 766 763 760 759 760 760 759 758 758 759 761 765 768 771 773 775 777 779 781 783 784 785 787 789 791 794 798 802 802 802 803 804 806 808 812 816 819 822 825 826 828 831 832 834 835 836 837 838 839 839 839 840 840 841 842 843 844 844 844 844 844 844 844 844 843 842 842 841 840 840 839 839 839 840 840
762 757 755 757 755 756 758 757 756 761 765 762 761 766 767 762 759 761 767 772 769 767 766 761 758 758 757 756 755 756 757 758 761 764 767 770 772 774 776 778 779 781 783 784 785 787 789 791 794 800 803 803 803 804 805 807 810 814 816 819 821 823 825 828 830 832 833 835 837 838 839 839 839 840 841 842 842 843 844 844 845 845 844 844 844 843 843 842 842 841 841 840 840 839 840 840 841
758 753 754 758 757 757 758 756 757 759 760 764 763 761 765 762 758 764 769 769 768 767 764 758 754 754 752 752 752 753 755 756 760 763 765 768 770 772 775 776 778 779 781 782 782 783 786 787 788 793 798 801 801 802 804 806 809 813 814 816 818 820 822 825 828 831 833 835 836 838 839 839 839 840 841 841 842 843 844 845 845 845 845 845 844 843 843 843 843 842 841 841 840 840 840 840 841
753 752 754 756 756 757 757 755 759 762 762 765 763 761 767 763 759 768 771 767 766 763 758 753 751 750 750 750 751 752 753 755 758 761 763 766 768 771 773 775 776 777 778 778 779 780 781 783 785 788 793 797 799 800 801 804 808 812 813 813 816 818 821 824 827 830 832 834 836 838 838 839 839 840 841 842 842 843 844 845 845 845 845 845 844 844 843 843 843 843 842 841 841 840 840 841 842
750 752 754 755 758 758 757 758 759 765 768 765 760 761 765 762 759 768 772 765 758 751 748 747 746 747 747 748 749 749 752 754 756 759 761 764 767 769 771 773 774 774 775 776 776 776 778 780 782 785 791 796 799 801 800 801 805 810 812 811 813 816 819 822 826 829 831 833 836 838 838 839 840 840 841 842 843 843 844 845 845 846 846 845 844 844 844 844 844 843 842 842 841 841 841 842 842
749 751 754 759 763 761 762 763 761 770 774 764 759 759 762 762 756 758 760 752 743 740 741 741 741 743 744 744 746 747 750 753 755 757 760 763 765 766 768 770 771 772 773 774 773 773 775 778 782 786 793 797 800 802 800 799 802 806 809 810 811 814 817 820 823 826 828 830 833 836 838 839 840 840 841 842 843 844 845 845 846 846 846 845 845 845 845 845 844 844 843 842 842 842 842 843 843
747 747 752 761 768 767 769 771 771 777 774 762 759 758 762 764 752 744 742 735 733 733 732 733 734 737 738 740 743 745 749 751 753 756 758 761 762 764 766 768 769 770 771 772 772 773 775 779 783 789 794 795 798 801 801 799 801 804 806 808 810 812 815 818 821 824 827 829 831 834 837 839 840 840 841 842 843 844 845 845 846 847 846 846 846 845 845 845 845 844 844 843 843 843 844 844 844
744 745 752 762 771 775 777 775 774 776 769 763 765 761 761 759 742 734 734 731 730 729 726 726 727 729 733 737 740 743 747 749 752 754 757 759 760 761 763 765 767 768 769 770 771 773 776 780 785 789 792 793 794 799 800 799 799 802 805 806 808 811 815 817 820 823 826 828 829 832 836 838 839 840 841 842 843 844 845 845 846 847 847 846 846 846 846 846 845 845 844 844 844 845 845 845 845
741 741 747 755 765 776 781 777 775 776 767 764 768 764 761 755 736 727 726 724 723 724 723 723 723 727 731 734 738 741 744 747 750 752 754 756 758 759 761 763 765 766 767 769 771 773 776 780 784 787 789 791 792 797 800 801 802 803 805 806 807 811 814 817 819 822 825 827 828 831 835 837 838 840 841 842 843 844 845 846 846 847 847 847 847 847 847 846 846 846 845 845 845 846 846 846 847
740 736 738 746 752 761 771 770 770 771 765 766 771 764 757 749 733 723 722 722 723 724 723 722 723 726 729 732 736 739 742 745 747 749 751 752 754 757 760 762 764 765 766 767 770 773 776 778 781 784 789 791 794 799 803 803 804 805 806 806 808 812 814 816 819 821 824 826 828 831 834 836 838 839 840 842 843 844 845 846 847 847 847 847 847 847 847 847 847 847 846 847 847 847 847 847 848
744 737 739 746 741 745 762 767 763 762 761 765 768 758 744 734 724 723 728 727 726 726 724 724 725 726 728 732 733 736 739 741 744 746 748 749 752 755 759 761 762 764 765 766 768 771 774 776 781 785 789 790 794 800 804 805 805 805 806 807 810 812 814 816 819 821 824 826 828 830 833 835 837 839 840 842 843 844 845 846 847 847 848 848 848 848 848 848 848 848 847 848 848 848 849 849 850
743 741 742 742 736 739 757 770 769 764 761 763 764 754 740 732 722 721 729 726 723 726 725 723 725 725 728 730 731 733 736 738 741 743 744 747 750 754 756 758 760 762 763 765 767 770 772 775 780 784 787 789 793 798 802 803 803 804 805 808 810 812 813 814 817 821 824 826 828 830 833 835 837 838 840 842 843 844 846 846 847 848 848 849 849 849 849 849 849 849 849 849 849 849 850 850 851
739 742 738 737 741 743 748 761 770 768 762 761 762 752 741 739 731 722 725 723 720 725 726 724 726 726 727 728 729 731 733 735 739 740 743 746 749 752 754 755 758 760 762 764 766 768 771 775 779 783 787 790 793 796 798 800 800 801 804 807 810 811 812 813 815 820 824 826 828 830 832 834 836 838 840 842 843 845 846 847 848 849 849 849 850 850 850 850 850 850 850 850 850 850 851 852 853
731 732 731 735 746 750 751 759 764 765 767 763 759 755 745 738 728 717 718 716 712 721 727 726 726 725 725 726 727 729 731 734 737 739 742 745 747 750 752 754 757 759 762 763 766 768 771 775 780 784 787 790 793 796 796 797 797 799 803 806 809 810 810 812 815 820 823 824 827 829 832 834 836 838 840 841 843 845 846 847 848 849 850 850 850 850 851 851 851 851 851 851 851 851 852 853 854
729 727 731 735 738 742 746 750 749 751 764 764 758 758 746 729 717 710 708 706 707 719 726 724 722 722 722 723 725 728 730 732 734 737 740 743 746 749 750 753 756 759 761 763 765 767 770 775 780 783 785 788 792 794 793 793 795 798 802 805 807 808 809 811 814 819 822 823 826 829 831 834 835 837 840 841 843 845 846 848 848 849 850 850 851 851 851 851 851 851 851 851 852 852 853 855 856
732 731 735 737 737 738 739 745 745 742 754 760 758 756 739 716 709 705 701 703 707 714 719 720 720 720 721 722 724 727 729 731 733 735 738 741 745 748 750 753 756 758 761 762 763 766 770 774 778 781 783 785 788 791 791 792 794 797 800 802 805 807 809 812 814 818 821 822 825 828 831 833 835 837 839 841 843 845 846 848 849 850 850 851 851 851 852 852 852 852 852 852 853 854 855 856 857
727 729 733 733 734 738 742 750 749 742 746 752 753 751 729 706 704 703 701 707 710 711 715 719 720 720 721 722 724 726 728 730 732 734 737 741 744 747 750 752 755 757 759 761 762 765 769 773 776 779 782 783 785 789 790 791 793 796 799 801 803 806 809 812 814 817 820 822 825 828 830 833 835 837 839 841 843 845 846 848 849 850 851 851 852 852 852 853 853 853 853 853 854 855 856 858 859